Skip Page Navigation
NASA JPL Caltech
NASA Logo - Jet Propulsion Laboratory + View the NASA Portal
+ Center for Near-Earth Object Studies
JPL Home Earth Solar System Stars & Galaxies Technology
JPL Solar System Dynamics
BODIES ORBITS EPHEMERIDES TOOLS PHYSICAL DATA DISCOVERY FAQ SITE MAP
IMPORTANT: The SSD Announcement email list is now available. Major changes are coming in the near future, including possible hostname and/or URL changes. To be notified of such changes, subscribe to this email list.

Please visit this page for more details.


JPL Small-Body Database Browser
Search: [ help ]  
27293 (2000 AX136)
Classification: Main-belt Asteroid          SPK-ID: 2027293
Ephemeris | Orbit Diagram | Orbital Elements | Mission Design | Physical Parameters | Discovery Circumstances | Close-Approach Data ]

[ hide orbit diagram ]

For accurate long-term ephemerides, please instead use our Horizons system.This orbit viewer was implemented using two-body methods, and hence should not be used for determining accurate long-term trajectories (over several years or decades) or planetary encounter circumstances.


[ revert to old Java-based viewer ]

Orbital Elements at Epoch 2459000.5 (2020-May-31.0) TDB
Reference: JPL 28 (heliocentric ecliptic J2000)
 Element Value Uncertainty (1-sigma)   Units 
e .03594380559204129 4.6051e-08  
a 2.491591338174803 9.9689e-09 au
q 2.402034063500635 1.1274e-07 au
i 7.319724039974132 4.9858e-06 deg
node 341.301306360523 2.7186e-05 deg
peri 190.0884703379514 5.8105e-05 deg
M 44.94640637543114 5.1962e-05 deg
tp 2458821.148043433019
(2019-Dec-03.64804343)
0.00020701 TDB
period 1436.526511703658
3.93
8.6214e-06
2.36e-08
d
yr
n .2506044942902276 1.504e-09 deg/d
Q 2.581148612848973 1.0327e-08 au
  Orbit Determination Parameters
   # obs. used (total)      1917  
   data-arc span      12200 days (33.40 yr)  
   first obs. used      1986-09-09  
   last obs. used      2020-02-03  
   planetary ephem.      DE431  
   SB-pert. ephem.      SB431-N16  
   condition code      0  
   norm. resid. RMS      .46  
   source      ORB  
   producer      Otto Matic  
   solution date      2020-Feb-23 01:00:49  

Additional Information
 Earth MOID = 1.40803 au 
 Jupiter MOID = 2.39093 au 
 T_jup = 3.460 
[ show covariance matrix ]

Ephemeris | Orbit Diagram | Orbital Elements | Mission Design | Physical Parameters | Discovery Circumstances | Close-Approach Data ]

Physical Parameter Table
Parameter Symbol Value Units Sigma Reference Notes
absolute magnitude H 13.5   n/a MPO384981  

27293 (2000 AX136)          Discovered 2000-Jan-04 by LINEAR at Socorro
Reference: 20010804/Numbers.arcLast Updated: 2004-04-19

[ show close-approach data ]
Alternate Designations
 2000 AX136 = 1986 RZ10 = 1992 DU13 
Ephemeris | Orbit Diagram | Orbital Elements | Mission Design | Physical Parameters | Discovery Circumstances | Close-Approach Data ]
ABOUT SSD CREDITS/AWARDS PRIVACY/COPYRIGHT GLOSSARY LINKS
FirstGov 2020-Feb-25 19:04 UT
(server date/time)  
NASA Home Page
Site Manager:   Ryan S. Park
Webmaster  Alan B. Chamberlin